Location: Unspecified
(58.7730°N, 5.8460°E)
Time: 05:21:24
(UTC+01:00)

Cosmos 1674 - Visible Passes

Search period start: 26 January 2015 00:00
Search period end: 05 February 2015 00:00
Orbit: 511 x 535 km, 82.5° (Epoch: 25 January)

Date Brightness Start Highest point End Pass type
(mag) Time Alt. Az. Time Alt. Az. Time Alt. Az.
26 Jan 4.4 18:34:08 10° SW 18:37:45 35° WNW 18:41:26 10° N visible
27 Jan 4.2 18:21:24 10° SW 18:25:06 38° WNW 18:28:50 10° N visible
28 Jan 4.0 18:08:41 10° SW 18:12:26 42° WNW 18:16:14 10° N visible
29 Jan 3.9 17:55:59 10° SW 17:59:46 46° WNW 18:03:37 10° N visible
29 Jan 6.0 19:36:22 10° NW 19:36:47 10° NW 19:37:04 10° NW visible
30 Jan 3.7 17:43:16 10° SSW 17:47:06 50° WNW 17:50:59 10° N visible
30 Jan 5.8 19:22:55 10° WNW 19:24:02 11° NW 19:25:03 10° NNW visible
31 Jan 3.5 17:30:34 10° SSW 17:34:26 55° WNW 17:38:21 10° N visible
31 Jan 5.7 19:09:47 10° WNW 19:11:18 12° NW 19:12:43 10° NNW visible
01 Feb 5.7 18:56:44 10° WNW 18:58:34 13° NW 19:00:17 10° NNW visible
02 Feb 5.6 18:43:44 10° W 18:45:49 13° NW 18:47:47 10° NNW visible
03 Feb 5.5 18:30:46 10° W 18:33:03 14° NW 18:35:16 10° NNW visible
04 Feb 5.5 18:17:50 10° W 18:20:18 16° NW 18:22:42 10° NNW visible
